Blattenbach Aussen Messungen

Zurück zum Überblick

Zeitpunkt Temperatur Temperatur Kabelsensor Luftfeuchte
19.11.2018 03:00:08 2,6 C 7,5 C 73,0%
19.11.2018 02:53:11 2,6 C 7,5 C 74,0%
19.11.2018 02:46:09 2,6 C 7,5 C 74,0%
19.11.2018 02:39:08 2,6 C 7,5 C 74,0%
19.11.2018 02:32:10 2,6 C 7,5 C 74,0%
19.11.2018 02:25:08 2,6 C 7,5 C 74,0%
19.11.2018 02:18:08 2,6 C 7,5 C 74,0%
19.11.2018 02:11:07 2,6 C 7,5 C 74,0%
19.11.2018 02:04:11 2,6 C 7,5 C 74,0%
19.11.2018 01:57:08 2,6 C 7,5 C 73,0%
19.11.2018 01:50:08 2,7 C 7,5 C 74,0%
19.11.2018 01:43:10 2,7 C 7,5 C 74,0%
19.11.2018 01:36:08 2,8 C 7,5 C 74,0%
19.11.2018 01:29:11 2,9 C 7,6 C 74,0%
19.11.2018 01:22:10 2,8 C 7,6 C 74,0%
19.11.2018 01:15:11 2,7 C 7,6 C 74,0%
19.11.2018 01:08:10 2,8 C 7,6 C 74,0%
19.11.2018 01:01:12 2,9 C 7,6 C 74,0%
19.11.2018 00:54:07 2,9 C 7,6 C 75,0%
19.11.2018 00:47:09 2,8 C 7,6 C 75,0%
19.11.2018 00:40:10 2,7 C 7,6 C 75,0%
19.11.2018 00:33:10 2,6 C 7,6 C 74,0%
19.11.2018 00:26:09 2,5 C 7,6 C 75,0%
19.11.2018 00:19:08 2,4 C 7,6 C 75,0%
19.11.2018 00:12:11 2,5 C 7,6 C 75,0%
19.11.2018 00:05:08 2,4 C 7,6 C 75,0%
18.11.2018 23:58:10 2,2 C 7,6 C 75,0%
18.11.2018 23:51:08 2,0 C 7,6 C 75,0%
18.11.2018 23:44:12 1,8 C 7,6 C 75,0%
18.11.2018 23:37:08 1,8 C 7,6 C 75,0%
18.11.2018 23:30:09 1,8 C 7,6 C 75,0%
18.11.2018 23:23:09 2,0 C 7,7 C 74,0%
18.11.2018 23:16:10 2,1 C 7,7 C 74,0%
18.11.2018 23:09:08 2,3 C 7,7 C 74,0%
18.11.2018 23:02:09 2,4 C 7,7 C 73,0%
18.11.2018 22:55:07 2,6 C 7,7 C 73,0%
18.11.2018 22:48:11 2,6 C 7,7 C 73,0%
18.11.2018 22:41:11 2,8 C 7,7 C 73,0%
18.11.2018 22:34:08 2,8 C 7,7 C 73,0%
18.11.2018 22:27:09 2,8 C 7,7 C 72,0%
18.11.2018 22:20:09 2,8 C 7,7 C 73,0%
18.11.2018 22:13:07 2,8 C 7,7 C 73,0%
18.11.2018 22:06:09 2,8 C 7,7 C 73,0%
18.11.2018 21:59:10 2,7 C 7,7 C 72,0%
18.11.2018 21:52:08 2,9 C 7,7 C 72,0%
18.11.2018 21:45:08 3,0 C 7,7 C 73,0%
18.11.2018 21:38:07 3,0 C 7,7 C 73,0%
18.11.2018 21:31:11 2,9 C 7,7 C 72,0%
18.11.2018 21:24:10 2,8 C 7,7 C 73,0%
18.11.2018 21:17:10 2,7 C 7,7 C 73,0%